User: anonymous
Location: Starry Hill Observatory
(46.8582°N, 122.3590°W)
Time: 04:43:50
(UTC-07:00)
Language:

Cosmos 1300 Rocket - Orbit

View from above orbital plane
View from above orbital plane
View from above satellite
View from above satellite

Ground track
Ground track

The orbit data is extracted from the following two-line orbital elements,

1 12786U 81082B   14113.21479428  .00000608  00000-0  69770-4 0  8525
2 12786 082.4881 332.1415 0019324 094.3278 044.7587 14.84079613764069
Epoch (UTC): 23 April 2014 05:09:18
Eccentricity: 0.0019324
inclination: 82.4881°
perigee height: 603 km
apogee height: 630 km
right ascension of ascending node: 332.1415°
argument of perigee: 94.3278°
revolutions per day: 14.84079613
mean anomaly at epoch: 44.7587°
orbit number at epoch: 76406

The dashed part of the orbit path shows where the satellite is in the earth's shadow,  

DLR